,,Stat6,,Stat2,,Stat8,,Stat9,,Stat10,,Wind1,,Wind1,
time,status,PA1M_AVG,status,PR1M_SUM,status,RH1M_AVG,status,SR1M_AVG,status,TA1M_AVG,status,W1dAve1m,status,W1sAve1m,
2004-01-15, 00:00:00,VALID,917.794,VALID,0,VALID,94.6786,VALID,0,VALID,20.8286,VALID,124,VALID,0.636533,
2004-01-15, 00:01:00,VALID,917.788,VALID,0,VALID,94.6659,VALID,0,VALID,20.8254,VALID,144,VALID,0.904948,
2004-01-15, 00:02:00,VALID,917.791,VALID,0,VALID,94.5552,VALID,0,VALID,20.8383,VALID,125,VALID,1.18378,
2004-01-15, 00:03:00,VALID,917.782,VALID,0,VALID,94.4586,VALID,0,VALID,20.8475,VALID,101,VALID,0.833212,
2004-01-15, 00:04:00,VALID,917.773,VALID,0,VALID,94.4395,VALID,0.0169808,VALID,20.8537,VALID,83,VALID,0.496911,
2004-01-15, 00:05:00,VALID,917.777,VALID,0,VALID,94.4599,VALID,0.0339617,VALID,20.8531,VALID,65,VALID,0.551042,
2004-01-15, 00:06:00,VALID,917.769,VALID,0,VALID,94.4077,VALID,0,VALID,20.8698,VALID,87,VALID,0.554865,
2004-01-15, 00:07:00,VALID,917.76,VALID,0,VALID,94.3543,VALID,0,VALID,20.883,VALID,122,VALID,0.558222,
2004-01-15, 00:08:00,VALID,917.766,VALID,0,VALID,94.3149,VALID,0.0169808,VALID,20.8825,VALID,160,VALID,0.503906,
2004-01-15, 00:09:00,VALID,917.764,VALID,0,VALID,94.1483,VALID,0,VALID,20.8924,VALID,157,VALID,0.403343,
2004-01-15, 00:10:00,VALID,917.772,VALID,0,VALID,94.0377,VALID,0,VALID,20.9185,VALID,135,VALID,0.0424924,
2004-01-15, 00:11:00,VALID,917.774,VALID,0,VALID,94.025,VALID,0,VALID,20.9247,VALID,140,VALID,0.464939,
2004-01-15, 00:12:00,VALID,917.773,VALID,0,VALID,93.9907,VALID,0.0169808,VALID,20.9279,VALID,153,VALID,0.558866,
2004-01-15, 00:13:00,VALID,917.768,VALID,0,VALID,93.9398,VALID,0.0169808,VALID,20.9204,VALID,163,VALID,0.55069,
2004-01-15, 00:14:00,VALID,917.756,VALID,0,VALID,93.9436,VALID,0.0509425,VALID,20.9374,VALID,162,VALID,0.282393,
2004-01-15, 00:15:00,VALID,917.757,VALID,0,VALID,93.9016,VALID,0,VALID,20.9538,VALID,123,VALID,0.456395,
2004-01-15, 00:16:00,VALID,917.758,VALID,0,VALID,93.8584,VALID,0,VALID,20.9336,VALID,182,VALID,0.222834,
2004-01-15, 00:17:00,VALID,917.737,VALID,0,VALID,93.8444,VALID,0,VALID,20.957,VALID,144,VALID,0.785342,
2004-01-15, 00:18:00,VALID,917.733,VALID,0,VALID,93.8075,VALID,0.0169808,VALID,20.9535,VALID,146,VALID,1.18022,
2004-01-15, 00:19:00,VALID,917.732,VALID,0,VALID,93.8279,VALID,0,VALID,20.9436,VALID,137,VALID,0.731027,
2004-01-15, 00:20:00,VALID,917.741,VALID,0,VALID,93.9372,VALID,0.0169808,VALID,20.9274,VALID,139,VALID,0.449306,
2004-01-15, 00:21:00,VALID,917.749,VALID,0,VALID,93.95,VALID,0.0169808,VALID,20.9341,VALID,148,VALID,0.33153,
2004-01-15, 00:22:00,VALID,917.774,VALID,0,VALID,93.983,VALID,0.0169808,VALID,20.9175,VALID,148,VALID,0.22218,
2004-01-15, 00:23:00,VALID,917.787,VALID,0,VALID,93.9411,VALID,0.0509425,VALID,20.9336,VALID,143,VALID,0.101763,
2004-01-15, 00:24:00,VALID,917.816,VALID,0,VALID,93.8699,VALID,0,VALID,20.9398,VALID,188,VALID,0.441883,
2004-01-15, 00:25:00,VALID,917.84,VALID,0,VALID,93.9093,VALID,0.0169808,VALID,20.9667,VALID,210,VALID,0.464648,
2004-01-15, 00:26:00,VALID,917.861,VALID,0,VALID,93.866,VALID,0.0509425,VALID,20.9627,VALID,185,VALID,0.750182,
2004-01-15, 00:27:00,VALID,917.886,VALID,0,VALID,93.922,VALID,0,VALID,20.9597,VALID,187,VALID,0.406977,
2004-01-15, 00:28:00,VALID,917.885,VALID,0,VALID,93.9042,VALID,-0.0339617,VALID,20.9637,VALID,210,VALID,0.422238,
2004-01-15, 00:29:00,VALID,917.89,VALID,0,VALID,93.9016,VALID,-0.0169808,VALID,20.9772,VALID,219,VALID,0.585556,
2004-01-15, 00:30:00,VALID,917.875,VALID,0,VALID,93.8482,VALID,-0.0679233,VALID,20.9769,VALID,230,VALID,0.724609,
2004-01-15, 00:31:00,VALID,917.873,VALID,0,VALID,93.8279,VALID,-0.0339617,VALID,20.9863,VALID,211,VALID,0.447027,
2004-01-15, 00:32:00,VALID,917.867,VALID,0,VALID,93.8724,VALID,-0.0169808,VALID,20.9928,VALID,237,VALID,0.339134,
2004-01-15, 00:33:00,VALID,917.857,VALID,0,VALID,94.1445,VALID,-0.0339617,VALID,20.9804,VALID,242,VALID,0.0256696,
2004-01-15, 00:34:00,VALID,917.852,VALID,0,VALID,94.2132,VALID,-0.0339617,VALID,20.9702,VALID,242,VALID,0.0433408,
2004-01-15, 00:35:00,VALID,917.834,VALID,0,VALID,94.2526,VALID,-0.0679233,VALID,20.9702,VALID,268,VALID,0.139648,
2004-01-15, 00:36:00,VALID,917.818,VALID,0,VALID,94.4154,VALID,-0.0509425,VALID,20.9705,VALID,292,VALID,0.0368304,
2004-01-15, 00:37:00,VALID,917.812,VALID,0,VALID,94.5883,VALID,-0.0509425,VALID,20.9608,VALID,321,VALID,0.471608,
2004-01-15, 00:38:00,VALID,917.793,VALID,0,VALID,94.69,VALID,-0.0849042,VALID,20.9513,VALID,356,VALID,0.549782,
2004-01-15, 00:39:00,VALID,917.794,VALID,0,VALID,94.6443,VALID,-0.0509425,VALID,20.9387,VALID,356,VALID,0.389062,
2004-01-15, 00:40:00,VALID,917.783,VALID,0,VALID,94.6036,VALID,-0.0509425,VALID,20.9131,VALID,358,VALID,0.436773,
2004-01-15, 00:41:00,VALID,917.775,VALID,0,VALID,94.7803,VALID,-0.0339617,VALID,20.883,VALID,4,VALID,0.294034,
2004-01-15, 00:42:00,VALID,917.765,VALID,0,VALID,94.8375,VALID,-0.0509425,VALID,20.8502,VALID,4,VALID,0.225142,
2004-01-15, 00:43:00,VALID,917.759,VALID,0,VALID,94.7574,VALID,0.0849042,VALID,20.8437,VALID,4,VALID,0.172991,
2004-01-15, 00:44:00,VALID,917.756,VALID,0,VALID,94.8439,VALID,0.0509425,VALID,20.8109,VALID,10,VALID,0.412574,
2004-01-15, 00:45:00,VALID,917.752,VALID,0,VALID,94.91,VALID,0.0849042,VALID,20.7918,VALID,11,VALID,0.436979,
2004-01-15, 00:46:00,VALID,917.751,VALID,0,VALID,94.9571,VALID,0.0509425,VALID,20.7883,VALID,23,VALID,0.563616,
2004-01-15, 00:47:00,VALID,917.758,VALID,0,VALID,94.9952,VALID,0.0339617,VALID,20.7818,VALID,56,VALID,0.6337,
2004-01-15, 00:48:00,VALID,917.749,VALID,0,VALID,95.0664,VALID,0.0169808,VALID,20.7562,VALID,64,VALID,0.717226,
2004-01-15, 00:49:00,VALID,917.732,VALID,0,VALID,95.2406,VALID,0.0339617,VALID,20.7199,VALID,64,VALID,0.890816,
2004-01-15, 00:50:00,VALID,917.699,VALID,0,VALID,95.4479,VALID,0,VALID,20.7113,VALID,61,VALID,0.983648,
2004-01-15, 00:51:00,VALID,917.667,VALID,0,VALID,95.5954,VALID,0.0169808,VALID,20.6919,VALID,63,VALID,0.868278,
2004-01-15, 00:52:00,VALID,917.631,VALID,0,VALID,95.6984,VALID,0,VALID,20.6854,VALID,67,VALID,1.13624,
2004-01-15, 00:53:00,VALID,917.592,VALID,0,VALID,95.6781,VALID,0.0169808,VALID,20.6946,VALID,57,VALID,0.949855,
2004-01-15, 00:54:00,VALID,917.563,VALID,0,VALID,95.57,VALID,0.0509425,VALID,20.7113,VALID,60,VALID,1.01451,
2004-01-15, 00:55:00,VALID,917.558,VALID,0,VALID,95.4924,VALID,0.0509425,VALID,20.7102,VALID,56,VALID,0.857013,
2004-01-15, 00:56:00,VALID,917.546,VALID,0,VALID,95.4899,VALID,0,VALID,20.7105,VALID,55,VALID,0.771341,
2004-01-15, 00:57:00,VALID,917.538,VALID,0,VALID,95.5916,VALID,0.0169808,VALID,20.6884,VALID,38,VALID,0.636719,
2004-01-15, 00:58:00,VALID,917.537,VALID,0,VALID,95.6043,VALID,-0.0509425,VALID,20.6959,VALID,55,VALID,0.75816,
2004-01-15, 00:59:00,VALID,917.529,VALID,0,VALID,95.6857,VALID,-0.0509425,VALID,20.6999,VALID,55,VALID,0.932776,
2004-01-15, 01:00:00,VALID,917.527,VALID,0,VALID,95.7124,VALID,-0.0849042,VALID,20.6962,VALID,75,VALID,0.711301,
2004-01-15, 01:01:00,VALID,917.536,VALID,0,VALID,95.6743,VALID,-0.0509425,VALID,20.6892,VALID,76,VALID,0.603693,
2004-01-15, 01:02:00,VALID,917.546,VALID,0,VALID,95.7595,VALID,-0.0339617,VALID,20.6932,VALID,77,VALID,0.667361,
2004-01-15, 01:03:00,VALID,917.551,VALID,0,VALID,95.8904,VALID,-0.0169808,VALID,20.6927,VALID,123,VALID,0.906795,
2004-01-15, 01:04:00,VALID,917.563,VALID,0,VALID,95.8586,VALID,-0.0679233,VALID,20.6989,VALID,125,VALID,0.587209,
2004-01-15, 01:05:00,VALID,917.586,VALID,0,VALID,95.8599,VALID,-0.0509425,VALID,20.7158,VALID,143,VALID,0.931974,
2004-01-15, 01:06:00,VALID,917.596,VALID,0,VALID,95.9031,VALID,-0.0509425,VALID,20.7188,VALID,144,VALID,0.806686,
2004-01-15, 01:07:00,VALID,917.608,VALID,0,VALID,95.8548,VALID,-0.0679233,VALID,20.7183,VALID,145,VALID,1.12715,
2004-01-15, 01:08:00,VALID,917.622,VALID,0,VALID,95.7836,VALID,-0.0339617,VALID,20.7312,VALID,153,VALID,0.873728,
2004-01-15, 01:09:00,VALID,917.632,VALID,0,VALID,95.7505,VALID,-0.0679233,VALID,20.757,VALID,153,VALID,0.650521,
2004-01-15, 01:10:00,VALID,917.616,VALID,0,VALID,95.7366,VALID,-0.0169808,VALID,20.767,VALID,146,VALID,0.508523,
2004-01-15, 01:11:00,VALID,917.615,VALID,0,VALID,95.7213,VALID,-0.0169808,VALID,20.7767,VALID,128,VALID,0.159108,
2004-01-15, 01:12:00,VALID,917.589,VALID,0,VALID,95.7289,VALID,0,VALID,20.7829,VALID,124,VALID,0.216082,
2004-01-15, 01:13:00,VALID,917.557,VALID,0,VALID,95.7251,VALID,0.0679233,VALID,20.7915,VALID,122,VALID,0.263719,
2004-01-15, 01:14:00,VALID,917.534,VALID,0,VALID,95.7556,VALID,0.0509425,VALID,20.7848,VALID,123,VALID,0.282689,
2004-01-15, 01:15:00,VALID,917.516,VALID,0,VALID,95.7302,VALID,0.0679233,VALID,20.7815,VALID,125,VALID,0.555051,
2004-01-15, 01:16:00,VALID,917.504,VALID,0,VALID,95.8205,VALID,0.0679233,VALID,20.7587,VALID,128,VALID,0.557617,
2004-01-15, 01:17:00,VALID,917.499,VALID,0,VALID,95.8803,VALID,0.0679233,VALID,20.7557,VALID,119,VALID,0.555246,
2004-01-15, 01:18:00,VALID,917.481,VALID,0,VALID,95.9693,VALID,0,VALID,20.7463,VALID,108,VALID,0.364453,
2004-01-15, 01:19:00,VALID,917.484,VALID,0,VALID,96.0685,VALID,0,VALID,20.7269,VALID,108,VALID,0.182422,
2004-01-15, 01:20:00,VALID,917.482,VALID,0,VALID,96.0888,VALID,0.0509425,VALID,20.7232,VALID,110,VALID,0.406994,
2004-01-15, 01:21:00,VALID,917.497,VALID,0,VALID,96.0697,VALID,0.0509425,VALID,20.7266,VALID,119,VALID,0.260538,
2004-01-15, 01:22:00,VALID,917.487,VALID,0,VALID,96.0812,VALID,0.0169808,VALID,20.7527,VALID,120,VALID,0.0225694,
2004-01-15, 01:23:00,VALID,917.473,VALID,0,VALID,96.0417,VALID,0.0169808,VALID,20.7689,VALID,120,VALID,0.138579,
2004-01-15, 01:24:00,VALID,917.456,VALID,0,VALID,95.851,VALID,0.0849042,VALID,20.788,VALID,120,VALID,0.111421,
2004-01-15, 01:25:00,VALID,917.433,VALID,0,VALID,95.7658,VALID,0,VALID,20.795,VALID,120,VALID,0.0830305,
2004-01-15, 01:26:00,VALID,917.433,VALID,0,VALID,95.687,VALID,0.0339617,VALID,20.8079,VALID,120,VALID,0.156068,
2004-01-15, 01:27:00,VALID,917.406,VALID,0,VALID,95.6476,VALID,0.0339617,VALID,20.8337,VALID,120,VALID,0.000372024,
2004-01-15, 01:28:00,VALID,917.408,VALID,0,VALID,95.6437,VALID,0,VALID,20.8502,VALID,120,VALID,0.270198,
2004-01-15, 01:29:00,VALID,917.398,VALID,0,VALID,95.6119,VALID,0.0339617,VALID,20.8693,VALID,120,VALID,0.341619,
2004-01-15, 01:30:00,VALID,917.394,VALID,0,VALID,95.6336,VALID,0.0169808,VALID,20.8725,VALID,120,VALID,0.0768532,
2004-01-15, 01:31:00,VALID,917.381,VALID,0,VALID,95.715,VALID,0,VALID,20.8822,VALID,120,VALID,0.0675223,
2004-01-15, 01:32:00,VALID,917.374,VALID,0,VALID,95.5992,VALID,0,VALID,20.8949,VALID,120,VALID,0,
2004-01-15, 01:33:00,VALID,917.354,VALID,0,VALID,95.4441,VALID,0.0169808,VALID,20.872,VALID,120,VALID,0.0090554,
2004-01-15, 01:34:00,VALID,917.342,VALID,0,VALID,95.2902,VALID,0.0169808,VALID,20.8784,VALID,120,VALID,0.369792,
2004-01-15, 01:35:00,VALID,917.32,VALID,0,VALID,95.4161,VALID,0.0169808,VALID,20.8825,VALID,120,VALID,0.545967,
2004-01-15, 01:36:00,VALID,917.288,VALID,0,VALID,95.4454,VALID,0.0169808,VALID,20.8601,VALID,120,VALID,0.576265,
2004-01-15, 01:37:00,VALID,917.262,VALID,0,VALID,95.3347,VALID,0.0169808,VALID,20.8399,VALID,120,VALID,0.541406,
2004-01-15, 01:38:00,VALID,917.216,VALID,0,VALID,95.275,VALID,0,VALID,20.837,VALID,119,VALID,0.619234,
2004-01-15, 01:39:00,VALID,917.181,VALID,0,VALID,95.1682,VALID,0,VALID,20.8305,VALID,110,VALID,0.793786,
2004-01-15, 01:40:00,VALID,917.132,VALID,0,VALID,95.1173,VALID,0.0169808,VALID,20.8372,VALID,104,VALID,0.771151,
2004-01-15, 01:41:00,VALID,917.085,VALID,0,VALID,95.0779,VALID,0,VALID,20.8499,VALID,94,VALID,0.992746,
2004-01-15, 01:42:00,VALID,917.05,VALID,0,VALID,95.088,VALID,0,VALID,20.8434,VALID,103,VALID,0.713299,
2004-01-15, 01:43:00,VALID,917.014,VALID,0,VALID,95.158,VALID,-0.0849042,VALID,20.848,VALID,103,VALID,0.681734,
2004-01-15, 01:44:00,VALID,916.985,VALID,0,VALID,95.2877,VALID,-0.101885,VALID,20.8348,VALID,125,VALID,0.763765,
2004-01-15, 01:45:00,VALID,916.959,VALID,0,VALID,95.3742,VALID,-0.101885,VALID,20.8415,VALID,133,VALID,1.06622,
2004-01-15, 01:46:00,VALID,916.931,VALID,0,VALID,95.4225,VALID,-0.101885,VALID,20.8418,VALID,136,VALID,0.852628,
2004-01-15, 01:47:00,VALID,916.907,VALID,0,VALID,95.5051,VALID,-0.101885,VALID,20.8324,VALID,139,VALID,1.09394,
2004-01-15, 01:48:00,VALID,916.874,VALID,0,VALID,95.6488,VALID,-0.0849042,VALID,20.813,VALID,141,VALID,1.18883,
2004-01-15, 01:49:00,VALID,916.832,VALID,0,VALID,95.7633,VALID,-0.101885,VALID,20.8035,VALID,145,VALID,0.769354,
2004-01-15, 01:50:00,VALID,916.81,VALID,0,VALID,95.8993,VALID,-0.101885,VALID,20.7737,VALID,148,VALID,0.899826,
2004-01-15, 01:51:00,VALID,916.768,VALID,0,VALID,95.9871,VALID,-0.0849042,VALID,20.7608,VALID,142,VALID,1.29762,
2004-01-15, 01:52:00,VALID,916.742,VALID,0,VALID,96.1358,VALID,-0.0849042,VALID,20.7317,VALID,137,VALID,0.945313,
2004-01-15, 01:53:00,VALID,916.703,VALID,0,VALID,96.3266,VALID,-0.101885,VALID,20.7161,VALID,123,VALID,1.06345,
2004-01-15, 01:54:00,VALID,916.681,VALID,0,VALID,96.4957,VALID,-0.101885,VALID,20.684,VALID,123,VALID,1.3821,
2004-01-15, 01:55:00,VALID,916.658,VALID,0,VALID,96.6966,VALID,-0.101885,VALID,20.6356,VALID,124,VALID,1.23038,
2004-01-15, 01:56:00,VALID,916.654,VALID,0,VALID,96.923,VALID,-0.0849042,VALID,20.5904,VALID,124,VALID,1.20833,
2004-01-15, 01:57:00,VALID,916.624,VALID,0,VALID,97.1201,VALID,-0.101885,VALID,20.5414,VALID,131,VALID,1.23661,
2004-01-15, 01:58:00,VALID,916.614,VALID,0,VALID,97.3095,VALID,-0.101885,VALID,20.5158,VALID,135,VALID,1.08233,
2004-01-15, 01:59:00,VALID,916.606,VALID,0,VALID,97.4049,VALID,-0.101885,VALID,20.5061,VALID,140,VALID,0.808949,
2004-01-15, 02:00:00,VALID,916.614,VALID,0,VALID,97.5054,VALID,-0.0849042,VALID,20.4865,VALID,130,VALID,0.677455,
2004-01-15, 02:01:00,VALID,916.609,VALID,0,VALID,97.5448,VALID,-0.0679233,VALID,20.4738,VALID,105,VALID,0.62827,
2004-01-15, 02:02:00,VALID,916.592,VALID,0,VALID,97.5867,VALID,-0.0849042,VALID,20.4502,VALID,94,VALID,0.623476,
2004-01-15, 02:03:00,VALID,916.575,VALID,0,VALID,97.644,VALID,-0.0849042,VALID,20.4515,VALID,113,VALID,0.512463,
2004-01-15, 02:04:00,VALID,916.557,VALID,0,VALID,97.7177,VALID,-0.101885,VALID,20.445,VALID,91,VALID,0.910547,
2004-01-15, 02:05:00,VALID,916.527,VALID,0,VALID,97.7533,VALID,-0.101885,VALID,20.4348,VALID,99,VALID,0.713415,
2004-01-15, 02:06:00,VALID,916.518,VALID,0,VALID,97.7368,VALID,-0.0849042,VALID,20.445,VALID,115,VALID,0.666992,
2004-01-15, 02:07:00,VALID,916.509,VALID,0,VALID,97.6821,VALID,-0.0509425,VALID,20.4281,VALID,100,VALID,0.491461,
2004-01-15, 02:08:00,VALID,916.531,VALID,0,VALID,97.6936,VALID,-0.0679233,VALID,20.4184,VALID,51,VALID,0.373757,
2004-01-15, 02:09:00,VALID,916.568,VALID,0,VALID,97.747,VALID,-0.101885,VALID,20.4353,VALID,15,VALID,0.661644,
2004-01-15, 02:10:00,VALID,916.598,VALID,0,VALID,97.7241,VALID,-0.101885,VALID,20.4318,VALID,14,VALID,0.577567,
2004-01-15, 02:11:00,VALID,916.642,VALID,0,VALID,97.6936,VALID,-0.0509425,VALID,20.4254,VALID,12,VALID,0.621094,
2004-01-15, 02:12:00,VALID,916.682,VALID,0,VALID,97.5677,VALID,-0.0509425,VALID,20.4152,VALID,7,VALID,0.538876,
2004-01-15, 02:13:00,VALID,916.713,VALID,0,VALID,97.5702,VALID,0.0169808,VALID,20.395,VALID,360,VALID,0.510231,
2004-01-15, 02:14:00,VALID,916.725,VALID,0,VALID,97.5728,VALID,-0.0169808,VALID,20.3786,VALID,358,VALID,0.472098,
2004-01-15, 02:15:00,VALID,916.737,VALID,0,VALID,97.5791,VALID,0.0169808,VALID,20.3724,VALID,358,VALID,0.353609,
2004-01-15, 02:16:00,VALID,916.734,VALID,0,VALID,97.616,VALID,0.0169808,VALID,20.3689,VALID,353,VALID,0.514695,
2004-01-15, 02:17:00,VALID,916.722,VALID,0,VALID,97.6732,VALID,0,VALID,20.3528,VALID,333,VALID,0.550327,
2004-01-15, 02:18:00,VALID,916.728,VALID,0,VALID,97.7788,VALID,0.0169808,VALID,20.3468,VALID,331,VALID,0.150746,
2004-01-15, 02:19:00,VALID,916.723,VALID,0,VALID,97.8004,VALID,0.0169808,VALID,20.3401,VALID,333,VALID,0.0882994,
2004-01-15, 02:20:00,VALID,916.705,VALID,0,VALID,97.7432,VALID,0.0169808,VALID,20.3143,VALID,347,VALID,0.370916,
2004-01-15, 02:21:00,VALID,916.707,VALID,0,VALID,97.8017,VALID,0,VALID,20.2981,VALID,356,VALID,0.471768,
2004-01-15, 02:22:00,VALID,916.705,VALID,0,VALID,97.939,VALID,0,VALID,20.2917,VALID,356,VALID,0.238692,
2004-01-15, 02:23:00,VALID,916.703,VALID,0,VALID,98.0382,VALID,0.0169808,VALID,20.2723,VALID,356,VALID,0.449405,
2004-01-15, 02:24:00,VALID,916.709,VALID,0,VALID,98.1081,VALID,0.0169808,VALID,20.2788,VALID,357,VALID,0.530297,
2004-01-15, 02:25:00,VALID,916.713,VALID,0,VALID,98.1348,VALID,0.0339617,VALID,20.2884,VALID,34,VALID,0.534489,
2004-01-15, 02:26:00,VALID,916.691,VALID,0,VALID,97.9174,VALID,0,VALID,20.2852,VALID,97,VALID,0.652616,
2004-01-15, 02:27:00,VALID,916.682,VALID,0,VALID,97.6071,VALID,0.0169808,VALID,20.2957,VALID,102,VALID,0.67242,
2004-01-15, 02:28:00,VALID,916.655,VALID,0,VALID,97.265,VALID,0,VALID,20.3178,VALID,109,VALID,0.700721,
2004-01-15, 02:29:00,VALID,916.64,VALID,0,VALID,97.0044,VALID,0,VALID,20.3603,VALID,118,VALID,0.724609,
2004-01-15, 02:30:00,VALID,916.627,VALID,0,VALID,96.8861,VALID,0,VALID,20.3955,VALID,95,VALID,0.656084,
2004-01-15, 02:31:00,VALID,916.625,VALID,0,VALID,96.7564,VALID,0.0169808,VALID,20.4114,VALID,82,VALID,0.584872,
2004-01-15, 02:32:00,VALID,916.61,VALID,0,VALID,96.6903,VALID,0,VALID,20.4206,VALID,82,VALID,0.430618,
2004-01-15, 02:33:00,VALID,916.609,VALID,0,VALID,96.661,VALID,0,VALID,20.4276,VALID,82,VALID,0.356831,
2004-01-15, 02:34:00,VALID,916.609,VALID,0,VALID,96.6674,VALID,0,VALID,20.4308,VALID,78,VALID,0.372044,
2004-01-15, 02:35:00,VALID,916.602,VALID,0,VALID,96.7233,VALID,0.0169808,VALID,20.4402,VALID,31,VALID,0.595465,
2004-01-15, 02:36:00,VALID,916.611,VALID,0,VALID,96.764,VALID,0,VALID,20.434,VALID,28,VALID,0.516555,
2004-01-15, 02:37:00,VALID,916.609,VALID,0,VALID,96.8289,VALID,0,VALID,20.4181,VALID,28,VALID,0.230097,
2004-01-15, 02:38:00,VALID,916.628,VALID,0,VALID,96.9408,VALID,0,VALID,20.4085,VALID,28,VALID,0.103981,
2004-01-15, 02:39:00,VALID,916.622,VALID,0,VALID,96.8823,VALID,0,VALID,20.3955,VALID,28,VALID,0.0866319,
2004-01-15, 02:40:00,VALID,916.628,VALID,0,VALID,96.8301,VALID,0.0339617,VALID,20.3915,VALID,28,VALID,0.0130208,
2004-01-15, 02:41:00,VALID,916.629,VALID,0,VALID,96.6852,VALID,0,VALID,20.4117,VALID,83,VALID,0.601053,
2004-01-15, 02:42:00,VALID,916.649,VALID,0,VALID,96.2884,VALID,0.0169808,VALID,20.4109,VALID,109,VALID,0.717383,
2004-01-15, 02:43:00,VALID,916.669,VALID,0,VALID,95.9337,VALID,0,VALID,20.4663,VALID,88,VALID,0.720749,
2004-01-15, 02:44:00,VALID,916.661,VALID,0,VALID,95.5802,VALID,-0.0169808,VALID,20.5212,VALID,87,VALID,0.747452,
2004-01-15, 02:45:00,VALID,916.643,VALID,0,VALID,95.4835,VALID,0.0169808,VALID,20.5729,VALID,87,VALID,0.803779,
2004-01-15, 02:46:00,VALID,916.624,VALID,0,VALID,95.3246,VALID,0.0169808,VALID,20.5953,VALID,91,VALID,0.979992,
2004-01-15, 02:47:00,VALID,916.577,VALID,0,VALID,95.2979,VALID,0,VALID,20.5953,VALID,103,VALID,0.938227,
2004-01-15, 02:48:00,VALID,916.568,VALID,0,VALID,95.275,VALID,0,VALID,20.5858,VALID,118,VALID,1.15234,
2004-01-15, 02:49:00,VALID,916.541,VALID,0,VALID,95.2813,VALID,0,VALID,20.5925,VALID,123,VALID,1.56159,
2004-01-15, 02:50:00,VALID,916.527,VALID,0,VALID,95.3958,VALID,0,VALID,20.5955,VALID,117,VALID,1.3404,
2004-01-15, 02:51:01,VALID,916.523,VALID,0,VALID,95.5102,VALID,0,VALID,20.5858,VALID,121,VALID,1.52902,
2004-01-15, 02:52:00,VALID,916.508,VALID,0,VALID,95.6196,VALID,0.0169808,VALID,20.5794,VALID,96,VALID,0.902521,
2004-01-15, 02:53:00,VALID,916.486,VALID,0,VALID,95.7188,VALID,0,VALID,20.5727,VALID,123,VALID,1.74028,
2004-01-15, 02:54:01,VALID,916.481,VALID,0,VALID,95.8307,VALID,0.0509425,VALID,20.5632,VALID,121,VALID,1.15072,
2004-01-15, 02:55:00,VALID,916.438,VALID,0,VALID,95.912,VALID,0.0169808,VALID,20.5533,VALID,115,VALID,1.27954,
2004-01-15, 02:56:00,VALID,916.392,VALID,0,VALID,95.9871,VALID,0.0169808,VALID,20.5371,VALID,129,VALID,0.874092,
2004-01-15, 02:57:00,VALID,916.356,VALID,0,VALID,95.9604,VALID,0,VALID,20.5145,VALID,118,VALID,1.26563,
2004-01-15, 02:58:00,VALID,916.309,VALID,0,VALID,95.8663,VALID,0,VALID,20.511,VALID,120,VALID,1.37091,
2004-01-15, 02:59:01,VALID,916.284,VALID,0,VALID,95.8141,VALID,0,VALID,20.5245,VALID,119,VALID,0.829055,
2004-01-15, 03:00:01,VALID,916.252,VALID,0,VALID,95.7785,VALID,0,VALID,20.5314,VALID,124,VALID,0.99295,
2004-01-15, 03:01:00,VALID,916.24,VALID,0,VALID,95.7366,VALID,0.0169808,VALID,20.5215,VALID,135,VALID,1.30905,
2004-01-15, 03:02:00,VALID,916.243,VALID,0,VALID,95.6781,VALID,0.0169808,VALID,20.5083,VALID,130,VALID,1.24642,
2004-01-15, 03:03:00,VALID,916.226,VALID,0,VALID,95.6704,VALID,0,VALID,20.5115,VALID,132,VALID,0.738863,
2004-01-15, 03:04:01,VALID,916.212,VALID,0,VALID,95.5941,VALID,0,VALID,20.5013,VALID,133,VALID,1.21076,
2004-01-15, 03:05:00,VALID,916.192,VALID,0,VALID,95.5077,VALID,0,VALID,20.5086,VALID,144,VALID,0.967561,
2004-01-15, 03:06:01,VALID,916.175,VALID,0,VALID,95.5039,VALID,0,VALID,20.5118,VALID,145,VALID,1.22293,
2004-01-15, 03:07:00,VALID,916.154,VALID,0,VALID,95.4721,VALID,0.0169808,VALID,20.5175,VALID,140,VALID,1.2561,
2004-01-15, 03:08:00,VALID,916.124,VALID,0,VALID,95.4212,VALID,0,VALID,20.5277,VALID,137,VALID,1.56113,
2004-01-15, 03:09:00,VALID,916.079,VALID,0,VALID,95.4212,VALID,0.0509425,VALID,20.5175,VALID,140,VALID,1.39063,
2004-01-15, 03:10:01,VALID,916.053,VALID,0,VALID,95.4937,VALID,0.0169808,VALID,20.518,VALID,136,VALID,1.89082,
2004-01-15, 03:11:00,VALID,916.005,VALID,0,VALID,95.5255,VALID,0,VALID,20.515,VALID,139,VALID,2.21332,
2004-01-15, 03:12:01,VALID,915.979,VALID,0,VALID,95.5051,VALID,0,VALID,20.4954,VALID,127,VALID,1.88516,
2004-01-15, 03:13:00,VALID,915.971,VALID,0,VALID,95.5713,VALID,0,VALID,20.4887,VALID,147,VALID,1.64196,
2004-01-15, 03:14:00,VALID,915.95,VALID,0,VALID,95.556,VALID,0,VALID,20.486,VALID,138,VALID,1.68672,
2004-01-15, 03:15:00,VALID,915.943,VALID,0,VALID,95.425,VALID,0.0169808,VALID,20.4862,VALID,145,VALID,1.73977,
2004-01-15, 03:16:00,VALID,915.928,VALID,0,VALID,95.2801,VALID,0,VALID,20.469,VALID,139,VALID,1.54015,
2004-01-15, 03:17:00,VALID,915.944,VALID,0,VALID,95.1211,VALID,0.0169808,VALID,20.4889,VALID,140,VALID,1.72585,
2004-01-15, 03:18:00,VALID,915.948,VALID,0,VALID,95.1287,VALID,0.0169808,VALID,20.5021,VALID,146,VALID,1.13555,
2004-01-15, 03:19:01,VALID,915.941,VALID,0,VALID,95.2203,VALID,0,VALID,20.4889,VALID,139,VALID,1.94438,
2004-01-15, 03:20:01,VALID,915.957,VALID,0,VALID,95.1313,VALID,-0.0169808,VALID,20.5019,VALID,145,VALID,2.37616,
2004-01-15, 03:21:00,VALID,915.965,VALID,0,VALID,95.0346,VALID,0.0169808,VALID,20.4986,VALID,126,VALID,2.0902,
2004-01-15, 03:22:01,VALID,915.966,VALID,0,VALID,94.793,VALID,0.0169808,VALID,20.5051,VALID,112,VALID,2.39542,
2004-01-15, 03:23:01,VALID,915.943,VALID,0,VALID,94.5934,VALID,0.0169808,VALID,20.5245,VALID,89,VALID,1.27248,
2004-01-15, 03:24:00,VALID,915.955,VALID,0,VALID,94.4573,VALID,0,VALID,20.5342,VALID,118,VALID,1.88582,
2004-01-15, 03:25:00,VALID,915.947,VALID,0,VALID,94.0606,VALID,0.0169808,VALID,20.5473,VALID,120,VALID,2.27752,
2004-01-15, 03:26:00,VALID,915.952,VALID,0,VALID,93.5494,VALID,0,VALID,20.5858,VALID,118,VALID,2.61573,
2004-01-15, 03:27:01,VALID,915.956,VALID,0,VALID,92.9339,VALID,0.0339617,VALID,20.6661,VALID,85,VALID,1.81641,
2004-01-15, 03:28:00,VALID,915.974,VALID,0,VALID,92.8348,VALID,0.101885,VALID,20.7135,VALID,77,VALID,1.39158,
2004-01-15, 03:29:01,VALID,915.975,VALID,0,VALID,92.7635,VALID,0.0679233,VALID,20.7301,VALID,103,VALID,1.62119,
2004-01-15, 03:30:00,VALID,915.99,VALID,0,VALID,92.672,VALID,0.0849042,VALID,20.7234,VALID,108,VALID,1.50799,
2004-01-15, 03:31:00,VALID,916.009,VALID,0,VALID,92.5296,VALID,0.0849042,VALID,20.7234,VALID,115,VALID,1.70952,
2004-01-15, 03:32:00,VALID,916.043,VALID,0,VALID,92.5321,VALID,0.0679233,VALID,20.7433,VALID,89,VALID,1.2193,
2004-01-15, 03:33:00,VALID,916.065,VALID,0,VALID,92.4991,VALID,0.0509425,VALID,20.7396,VALID,105,VALID,1.0024,
2004-01-15, 03:34:00,VALID,916.07,VALID,0,VALID,92.4533,VALID,0.101885,VALID,20.7299,VALID,111,VALID,1.28325,
2004-01-15, 03:35:00,VALID,916.084,VALID,0,VALID,92.2702,VALID,0.0679233,VALID,20.746,VALID,132,VALID,1.46819,
2004-01-15, 03:36:01,VALID,916.098,VALID,0,VALID,92.0337,VALID,0.118866,VALID,20.7396,VALID,112,VALID,1.46626,